Location: Six Mile Lake
(44.9000°N, 79.7170°W)
Time: 06:53:54
(UTC-04:00)

AO-92 - Visible Passes

Search period start: 30 June 2022 00:00
Search period end: 10 July 2022 00:00
Orbit: 473 x 481 km, 97.4° (Epoch: 29 June)

Date Brightness Start Highest point End Pass type
(mag) Time Alt. Az. Time Alt. Az. Time Alt. Az.
30 Jun ? 00:29:44 12° WSW 00:30:39 13° W 00:32:17 10° WNW visible
30 Jun ? 22:28:34 14° ESE 22:30:36 21° ENE 22:33:21 10° NNE visible
01 Jul ? 00:02:46 22° WSW 00:03:45 25° W 00:06:47 10° NW visible
01 Jul ? 22:03:01 10° E 22:04:08 11° ENE 22:05:16 10° NE visible
01 Jul ? 23:35:49 36° SSW 23:36:57 56° W 23:40:28 10° NNW visible
02 Jul ? 23:08:51 33° SE 23:10:15 64° ENE 23:13:48 10° N visible
03 Jul ? 22:41:53 19° ESE 22:43:38 29° ENE 22:46:47 10° N visible
04 Jul ? 00:16:05 17° WSW 00:16:59 18° W 00:19:31 10° NW visible
04 Jul ? 22:14:58 10° ESE 22:17:07 15° ENE 22:19:17 10° NNE visible
04 Jul ? 23:49:07 30° SW 23:50:07 37° W 23:53:28 10° NNW visible
05 Jul ? 23:22:08 40° S 23:23:20 86° WSW 23:26:55 10° NNW visible
06 Jul ? 22:55:09 26° SE 22:56:39 42° ENE 23:00:02 10° N visible
07 Jul ? 00:29:21 12° WSW 00:30:10 13° W 00:31:53 10° WNW visible
07 Jul ? 22:28:09 14° ESE 22:30:03 21° ENE 22:32:48 10° NNE visible
08 Jul ? 00:02:21 23° WSW 00:03:13 26° W 00:06:16 10° NW visible
08 Jul ? 22:02:30 10° E 22:03:33 11° ENE 22:04:36 10° NE visible
08 Jul ? 23:35:21 40° SSW 23:36:21 57° W 23:39:53 10° NNW visible
09 Jul ? 23:08:20 36° SE 23:09:36 62° ENE 23:13:08 10° N visible
